Find Starlink 34514

NORAD ID: 64416 Int'l Des: 2025-129 Owner: SPXS Country: US Constellation: starlink operational
LEOCIRCULAR

現在のビュー

3D地球を読み込み中...

About Starlink 34514

Starlink 34514 (NORAD 64416) is a starlink constellation satellite (v2 mini) launched Jun 17, 2025 by SPXS of US. It operates in LEO, CIRCULAR orbit with a mass of 575.00 kg.

Starlink 34514について

説明を読み込み中...

次回通過

Passes for default location (London). Set your location on the main map for personalized predictions.

高度履歴

Loading altitude history...

軌道要素

1 64416U 25129E 26195.15061175 .00001796 00000-0 15826-3 0 9997
2 64416 70.0009 115.4578 0002655 269.0440 91.0415 14.98334637 60232
Epoch: Jul 14, 2026 • Age: 10 hours

現在のステータス

高度 576.5 km
遠地点 / 近地点 N/A
速度 7.58 km/s
衛星直下点 31.09°N, 6.02°W
打ち上げ日 Jun 17, 2025
運用期間 1 year
タイプ internet

技術仕様

分類 Payload
質量 575.00 kg
乾燥質量 530.00 kg
総質量 575.00 kg
長さ 0.30 m
直径 4.10 m
スパン 29.00 m
形状 Box + pan
製造者 SPXS
バスタイプ Starlink V2MO
フェーズステータス In Orbit
所有者/国 SPXS/US

Most Searched